Tracking 18823 objects as of 23-October-2017
HD Live streaming from Space Station
objects crossing your sky now

COSMOS 2251 DEB

Track COSMOS 2251 DEB now!
10-day predictions


NORAD ID: 38196
Int'l Code: 1993-036BSL
Perigee: 621.7 km
Apogee: 904.9 km
Inclination: 73.9 °
Period: 100.0 minutes
Semi major axis: 7134 km
RCS: 0.0033 m2 (small)
Launch date: June 16, 1993
Source: Commonwealth of Independent States (former USSR) (CIS)
Launch site: PLESETSK MISSILE AND SPACE COMPLEX (PKMTR)

Note: This is SATELLITE DEBRIS
aabbcc
Your satellite tracking list
Your tracking list is empty





NASA's NSSDC Master Catalog

Two Line Element Set (TLE):
1 38196U 93036BSL 17291.93405068 +.00001983 +00000-0 +49852-3 0  9995
2 38196 073.8947 019.9901 0198411 103.3953 258.9403 14.40707856222755
Source of the keplerian elements: AFSPC